Каргала

Россия / Оренбургская область     51°53′26″N   54°52′07″E
темп.,
°C
ветер,
м/с
пор.,
м/с
влажн.,
%
обл.,
%
осадки,
мм/ч
давл.,
гПа
погр.,
м
21 октября, чт
чт2123:00+2сз611645 0.1 1015653
02:000сз611836 0.0 1017433
05:00−1зсз511855 0.0 1019382
08:00−1зсз410875 0.0 1019259
11:00+2зсз576815 0.0 1020699
14:00+4зюз6754100 0.0 10191321
17:00+4зюз71050100 0.0 10181248
20:00+1юз91795100 0.6 1015778
22 октября, пт
пт2223:00+2юз101896100 4.7 1012917
02:00+4зюз91874100 0.2 1010722
05:00+6зюз81573100 0.2 1010512
08:00+6зюз71486100 0.1 1011416
11:00+8юз71469100 0.1 1011491
14:00+11юз81657100 0.0 1011663
17:00+11юз91846100 0.0 1011731
20:00+11юз9195042 0.0 1012739
23 октября, сб
сб2323:00+10юз817555 0.0 1013591
02:00+9юз7155928 0.0 1013437
05:00+8юз6146695 0.0 1014344
08:00+7юз51168100 0.0 1015258
11:00+10юз61262100 0.0 1016403
14:00+13юз71158100 0.0 1016672
17:00+13юз61162100 0.0 1017693
20:00+10юз41075100 0.0 1018220
24 октября, вс
вс2423:00+10ююз3776100 0.0 1018148
02:00+10ю2874100 0.1 1016234
05:00+10ююз61485100 0.1 1014518
08:00+10ююз71489100 0.0 1013591
11:00+10юз71385100 0.4 1013724
14:00+10юз61193100 2.3 1013610
17:00+9з3893100 9.1 1014489
20:00+9юз3694100 3.8 1014261
25 октября, пн
пн2523:00+8сз2581100 4.8 1014150
02:00+7ссз2370100 0.0 101589
05:00+6с3574100 0.0 1015149
08:00+4ссв3578100 0.0 1015118
11:00+6с3463100 0.0 1016368
14:00+8с4449100 0.0 1016915
17:00+8ссз455249 0.0 10161039
20:00+4ссз386639 0.0 1018220